DW8222 Weather Reports


time (UTC)temp
F
wind
direction
speed
knots
gust
knots
rain 1hr
in
rain 24hr
in
rain mn
in
humidity
%
barometer
mb
20260504214541 79 233 4.3 11.3 0.00 0.00 0.00 31 1006.3
20260504213033 79 280 6.1 13.9 0.00 0.00 0.00 31 1006.6
20260504211530 79 307 7.8 14.8 0.00 0.00 0.00 30 1006.6
20260504210029 79 236 5.2 11.3 0.00 0.00 0.00 29 1006.8
20260504204525 78 270 7.0 15.6 0.00 0.00 0.00 29 1006.9
20260504203026 79 263 6.1 15.6 0.00 0.00 0.00 33 1007.1
20260504201523 78 297 5.2 11.3 0.00 0.00 0.00 32 1007.2
20260504200021 78 257 3.5 10.4 0.00 0.00 0.00 29 1007.3
20260504194518 77 271 6.1 13.0 0.00 0.00 0.00 30 1007.4
20260504193018 77 302 6.1 13.9 0.00 0.00 0.00 31 1007.6
20260504191515 78 198 3.5 8.7 0.00 0.00 0.00 31 1007.5
20260504190013 77 276 4.3 11.3 0.00 0.00 0.00 34 1007.8
20260504184508 76 301 2.6 8.7 0.00 0.00 0.00 38 1007.8
20260504183005 75 277 5.2 8.7 0.00 0.00 0.00 39 1007.9
20260504181603 73 321 6.1 11.3 0.00 0.00 0.00 39 1008.1
20260504180057 72 302 4.3 12.2 0.00 0.00 0.00 41 1008.2
20260504174557 71 308 7.0 11.3 0.00 0.00 0.00 42 1008.3
20260504173050 70 293 3.5 10.4 0.00 0.00 0.00 43 1008.4
20260504171546 69 314 2.6 7.0 0.00 0.00 0.00 52 1008.5
20260504081552 48 285 0.9 1.7 0.00 0.00 0.00 81 1009.3
20260504070140 50 284 0.0 0.9 0.00 0.00 0.00 79 1009.2
20260504050024 61 122 0.0 0.9 0.00 0.00 0.00 55 1008.9
20260504044523 64 8 0.0 1.7 0.00 0.00 0.00 49 1008.9
20260504043024 66 281 0.0 1.7 0.00 0.00 0.00 46 1008.8
20260504041520 70 306 0.0 7.0 0.00 0.00 0.00 40 1008.6
20260504040018 72 279 5.2 13.0 0.00 0.00 0.00 33 1008.5
20260504034516 73 259 5.2 10.4 0.00 0.00 0.00 33 1008.2
20260504033014 73 277 5.2 10.4 0.00 0.00 0.00 33 1008.1
20260504031513 74 271 3.5 10.4 0.00 0.00 0.00 34 1008.0
20260504030014 74 253 4.3 8.7 0.00 0.00 0.00 34 1008.0
20260504024510 74 203 1.7 4.3 0.00 0.00 0.00 35 1007.9
20260504023009 73 207 0.9 5.2 0.00 0.00 0.00 35 1007.7
20260504021510 74 278 1.7 3.5 0.00 0.00 0.00 37 1007.7
20260504020003 75 249 1.7 3.5 0.00 0.00 0.00 41 1007.8
20260504014502 79 222 0.9 2.6 0.00 0.00 0.00 34 1007.8
20260504013059 80 269 0.0 5.2 0.00 0.00 0.00 31 1007.8
20260504011557 79 115 4.3 7.0 0.00 0.00 0.00 31 1007.8
20260504010059 80 124 4.3 7.8 0.00 0.00 0.00 28 1008.0
20260504004549 81 123 3.5 7.8 0.00 0.00 0.00 27 1008.2
20260504003044 81 88 2.6 6.1 0.00 0.00 0.00 27 1008.3
20260504001541 81 124 3.5 7.8 0.00 0.00 0.00 25 1008.4
20260504000037 81 136 1.7 6.1 0.00 0.00 0.00 25 1008.6
20260503234536 80 181 1.7 6.1 0.00 0.00 0.00 27 1008.8
20260503233028 80 105 4.3 6.1 0.00 0.00 0.00 27 1009.0
20260503231525 80 143 3.5 7.8 0.00 0.00 0.00 26 1009.2
20260503230022 81 101 0.9 7.0 0.00 0.00 0.00 26 1009.5
20260503224518 81 131 3.5 9.6 0.00 0.00 0.00 25 1009.7
20260503223016 81 105 0.9 3.5 0.00 0.00 0.00 26 1010.0
20260503221509 80 107 4.3 9.6 0.00 0.00 0.00 28 1010.2
20260503220019 79 85 3.5 7.0 0.00 0.00 0.00 29 1010.4